Weather History for EGLL - September, 2013

Change the Weather History Date:

Saturday, September 7, 2013

  Actual Average Record
Temperature  
Mean Temperature 59 °F -  
Max Temperature 67 °F 64 °F 79 °F (2012)
Min Temperature 51 °F 51 °F 48 °F (2000)
Degree Days  
Heating Degree Days 6    
Growing Degree Days 9 (Base 50)    
Moisture  
Dew Point 48 °F    
Average Humidity 69    
Maximum Humidity 88    
Minimum Humidity 37    
Precipitation  
Precipitation 0.01 in - - ()
Sea Level Pressure  
Sea Level Pressure 29.94 in    
Wind  
Wind Speed 8 mph ()    
Max Wind Speed 16 mph    
Max Gust Speed -    
Visibility 6.2 miles    
Events Rain    
Averages and records for this station are not official NWS values.
T = Trace of Precipitation, MM = Missing Value Source: Averaged Metar Reports

Daily Weather History Graph

Daily Weather History Graph

Search for Another Location

Airport or City:

Trip Planner

Search our weather history database for the weather conditions in past years. The results will help you decide how hot, cold, wet, or windy it might be!

Date:

Astronomy

Sep. 07, 2013 Rise Set
Actual Time 6:24 AM BST 7:34 PM BST
Civil Twilight 5:49 AM BST 8:08 PM BST
Nautical Twilight 5:08 AM BST 8:49 PM BST
Astronomical Twilight 4:23 AM BST 9:34 PM BST
Moon 8:43 AM BST (9/7) 8:00 PM BST (9/7)
Length of Visible Light 14h 18m
Length of Day
13h 10m
Waxing Crescent, 4% of the Moon is Illuminated
Sep 7
Waxing Crescent
Sep 12
First Quarter
Sep 19
Full
Sep 27
Last Quarter
Oct 5
New

Hourly Weather History & Observations

Time (BST) Temp. Dew Point Humidity Pressure Visibility Wind Dir Wind Speed Gust Speed Precip Events Conditions
12:20 AM 55.4 °F 50.0 °F 82% 29.83 in - SSE 8.1 mph - N/A   Clear
12:50 AM 56 °F 50 °F 73% 29.85 in 31 mi South 6.9 mph - -   Scattered Clouds
12:50 AM 55.4 °F 50.0 °F 82% 29.83 in - South 6.9 mph - N/A   Clear
1:20 AM 55.4 °F 48.2 °F 77% 29.86 in 6.2 mi South 8.1 mph - N/A   Unknown
1:50 AM 55.4 °F 48.2 °F 77% 29.86 in 6.2 mi SSE 8.1 mph - N/A   Unknown
2:20 AM 53.6 °F 48.2 °F 82% 29.86 in 6.2 mi SSE 8.1 mph - N/A   Unknown
2:50 AM 51.8 °F 48.2 °F 88% 29.86 in - SSE 6.9 mph - N/A   Clear
3:20 AM 53.6 °F 50.0 °F 88% 29.86 in 6.2 mi South 8.1 mph - N/A   Partly Cloudy
3:50 AM 53 °F 49 °F 80% 29.86 in 22 mi SSE 8.1 mph - -   Scattered Clouds
3:50 AM 51.8 °F 48.2 °F 88% 29.86 in 6.2 mi SSE 8.1 mph - N/A   Partly Cloudy
4:20 AM 51.8 °F 48.2 °F 88% 29.86 in - SE 8.1 mph - N/A   Clear
4:50 AM 51.8 °F 48.2 °F 88% 29.86 in - SSE 6.9 mph - N/A   Clear
5:20 AM 51.8 °F 48.2 °F 88% 29.86 in - SSE 6.9 mph - N/A   Clear
5:50 AM 53.6 °F 46.4 °F 77% 29.89 in - SSE 9.2 mph - N/A   Clear
6:20 AM 51.8 °F 48.2 °F 88% 29.89 in - SSE 9.2 mph - N/A   Clear
6:50 AM 51.8 °F 48.2 °F 88% 29.89 in 6.2 mi SSE 6.9 mph - N/A   Partly Cloudy
7:20 AM 51.8 °F 48.2 °F 88% 29.89 in 6.2 mi South 6.9 mph - N/A   Partly Cloudy
7:50 AM 53.6 °F 50.0 °F 88% 29.89 in 6.2 mi South 8.1 mph - N/A   Partly Cloudy
8:20 AM 53.6 °F 50.0 °F 88% 29.89 in 6.2 mi SSE 8.1 mph - N/A   Partly Cloudy
8:50 AM 55.4 °F 50.0 °F 82% 29.89 in 6.2 mi South 6.9 mph - N/A   Partly Cloudy
9:20 AM 57.2 °F 50.0 °F 77% 29.92 in - South 9.2 mph - N/A   Clear
9:50 AM 60 °F 49 °F 56% 29.92 in 25 mi South 11.5 mph - -   Scattered Clouds
9:50 AM 59.0 °F 50.0 °F 72% 29.92 in 6.2 mi South 10.4 mph - N/A   Partly Cloudy
10:20 AM 60.8 °F 50.0 °F 68% 29.92 in 6.2 mi South 9.2 mph - N/A   Partly Cloudy
10:50 AM 60.8 °F 48.2 °F 63% 29.92 in 6.2 mi SSW 10.4 mph - N/A   Partly Cloudy
11:20 AM 62.6 °F 48.2 °F 59% 29.95 in 6.2 mi SSW 10.4 mph - N/A   Partly Cloudy
11:50 AM 57.2 °F 50.0 °F 77% 29.95 in 6.2 mi SW 10.4 mph - N/A   Partly Cloudy
12:20 PM 59.0 °F 50.0 °F 72% 29.95 in 6.2 mi South 9.2 mph - N/A   Partly Cloudy
12:50 PM 64 °F 46 °F 40% 29.96 in 31 mi SW 12.7 mph - - Rain Rain
12:50 PM 64.4 °F 46.4 °F 52% 29.95 in 6.2 mi SSW 11.5 mph - N/A   Partly Cloudy
1:20 PM 64.4 °F 46.4 °F 52% 29.95 in 6.2 mi SW 12.7 mph - N/A   Partly Cloudy
1:50 PM 66.2 °F 46.4 °F 49% 29.95 in 6.2 mi SW 13.8 mph - N/A   Partly Cloudy
2:20 PM 66.2 °F 44.6 °F 46% 29.95 in 6.2 mi SW 10.4 mph - N/A   Scattered Clouds
2:50 PM 64.4 °F 44.6 °F 49% 29.95 in 6.2 mi SSW 13.8 mph - N/A   Scattered Clouds
3:20 PM 66.2 °F 44.6 °F 46% 29.95 in 6.2 mi South 15.0 mph - N/A   Scattered Clouds
3:50 PM 65 °F 45 °F 37% 29.97 in 31 mi South 15.0 mph - -   Scattered Clouds
3:50 PM 66.2 °F 44.6 °F 46% 29.98 in 6.2 mi South 15.0 mph - N/A   Partly Cloudy
4:20 PM 64.4 °F 46.4 °F 52% 29.98 in 6.2 mi SSW 13.8 mph - N/A   Scattered Clouds
4:50 PM 66.2 °F 44.6 °F 46% 29.98 in 6.2 mi SSW 13.8 mph - N/A   Scattered Clouds
5:20 PM 66.2 °F 48.2 °F 52% 29.98 in 6.2 mi SSW 16.1 mph - N/A   Scattered Clouds
5:50 PM 64.4 °F 46.4 °F 52% 29.98 in 6.2 mi SW 16.1 mph - N/A   Partly Cloudy
6:20 PM 60.8 °F 48.2 °F 63% 30.01 in 6.2 mi SSW 13.8 mph - N/A   Partly Cloudy
6:50 PM 60 °F 47 °F 53% 30.00 in 25 mi SSW 12.7 mph - -   Scattered Clouds
6:50 PM 60.8 °F 48.2 °F 63% 30.01 in 6.2 mi SW 12.7 mph - N/A   Partly Cloudy
7:20 PM 59.0 °F 46.4 °F 63% 30.01 in 6.2 mi SW 11.5 mph - N/A   Partly Cloudy
7:50 PM 59.0 °F 46.4 °F 63% 30.01 in 6.2 mi SW 10.4 mph - N/A   Partly Cloudy
8:20 PM 57.2 °F 46.4 °F 67% 30.04 in 6.2 mi SW 8.1 mph - N/A   Partly Cloudy
8:50 PM 57.2 °F 46.4 °F 67% 30.04 in 6.2 mi South 6.9 mph - N/A   Partly Cloudy
9:20 PM 55.4 °F 46.4 °F 72% 30.04 in 6.2 mi SSW 6.9 mph - N/A   Partly Cloudy
9:50 PM 56 °F 47 °F 63% 30.05 in 28 mi SSW 6.9 mph - -  
9:50 PM 55.4 °F 48.2 °F 77% 30.04 in 6.2 mi SW 6.9 mph - N/A   Partly Cloudy
10:20 PM 55.4 °F 48.2 °F 77% 30.04 in 6.2 mi SSW 6.9 mph - N/A   Partly Cloudy
10:50 PM 55.4 °F 48.2 °F 77% 30.06 in - SSW 6.9 mph - N/A   Clear
11:20 PM 55.4 °F 48.2 °F 77% 30.06 in - SSW 8.1 mph - N/A   Clear